Showing default

HAWK-14A, 68448

Orbit data source: Space-Track

HAWK-14A, 68448 is a payload satellite owned by HawkEye 360 (US) in SSO that was launched on Mon, 30 Mar 2026 UTC via an FALCON 9 launch vehicle from the Air Force Western Test Range (AFWTR). Payload-class satellites include a variety of spacecraft equipped with specific instruments for various scientific and technological missions. These include communications satellites like Starlink; space stations such as the ISS; scientific satellites like the Hubble; Earth observation satellites from companies like Planet Labs, Umbra, and HawkEye 360; GPS; miniature CubeSats for education and research; and military/defense satellites.

Loading next visibility...
Identifier
68448, 2026-067AJ
Orbit
SSO
Country
Flag of USUS
Related business
Manufacturer
UTIAS-SFL
Mission
Operational Commercial Sigint
Bus & Motor
HAWK2G, Unknown motor
Mass
31 kg wet, 30 kg dry
Launch date (UTC)
2026-03-30 (6 months ago)
Launch vehicle
FALCON 9
Launch site
Air Force Western Test Range (AFWTR)
Object type
Payload
Rocket body
Debris
Shape & HBR
Box + 2 Pan, 1.0 m
Radar Cross Section
0.240 m², Medium (>0.1 m² and < 1m²)

Expand to show TLE details & history
Last TLE update: 15 hours ago

TLE from 15 hours ago
0 HAWK-14A
1 68448U 26067AJ  26263.43202482  .00003087  00000-0  15131-3 0  9997
2 68448  97.4716 220.7866 0005197 100.8793 259.3026 15.18879180 26392
Epoch: 2026-09-20T10:22Z
TLE epoch observation values (Epoch: 2026-09-20T10:22:06.944Z)
Latitude
-0.00006°
Longitude
65.93138°
Altitude
512.98 km
Speed
7.607 km/s
True Right ascension
14h 43m 08s
True Declination
0° 00' 00"
Sunlit
Object was in daylight at epoch
Visualization orbit readout
Latitude
Unknown
Longitude
Unknown
Altitude
Unknown
Speed
Unknown
Apparent Right ascension
Unknown
Apparent Declination
Unknown
Sunlit
N/A
Visualization observer readout
Local Sidereal Time
18:01:37
Azimuth
Unknown
Elevation
Unknown
Doppler factor
Unknown
Orbital elements
Apogee altitude
509.775 km
Perigee altitude
502.619 km
Semi-major axis
6,884.334 km
Eccentricity
0.00052
Inclination
97.4716°
RAAN
220.7866°
Arg. of periapsis
100.8793°
True anomaly
259.24409°
Mean anomaly
259.3026°
Eccentric anomaly
259.27334°
Mean motion
3.79971 °/min
Orbital period
94.74 mins
BSTAR
0.00015131
Loading maneuver chart data...
Computing Atmospheric mass density...
Loading historical data...
Loading historical data...
Loading historical data...
Loading historical data...
Loading historical data...
Loading historical data...
Loading historical data...

Documentation

Showing up to 5 results
|